Wind_Speed
46 47 48 49 51 52 53 55 56 57 58 59 59 60 60 61 61 61 61 61 61 61 60 59 57 56 56 56 56 55 54 52 50 46 45 44 44 42 42 42 40 39 38
48 49 50 52 53 53 54 55 57 58 59 59 59 59 60 60 60 60 59 59 59 58 57 56 55 55 55 54 54 52 50 48 46 43 41 40 39 38 38 37 35 34 34
50 51 52 53 54 55 55 56 57 58 58 58 59 59 58 58 58 58 58 57 56 55 55 54 53 53 52 51 49 47 46 45 43 41 38 36 34 34 33 32 31 30 30
52 53 54 54 55 55 56 56 57 57 57 57 57 57 57 56 56 56 55 54 54 53 52 52 51 50 48 46 44 43 41 40 39 38 34 33 32 31 29 28 27 27 26
52 53 54 54 55 56 56 56 57 56 56 55 55 55 54 53 53 53 52 52 51 50 49 48 46 45 43 42 41 39 38 36 35 33 32 30 29 27 26 26 25 23 23
52 52 53 54 55 55 56 56 55 55 55 54 54 52 51 51 51 50 49 49 48 47 46 44 42 41 39 38 37 36 35 33 32 31 29 28 25 23 23 23 23 22 19
52 52 53 54 54 55 55 54 54 53 53 52 51 50 49 49 48 47 46 45 44 43 42 40 38 37 35 34 33 33 31 30 28 27 25 24 22 20 21 20 20 19 17
52 52 53 53 54 53 53 52 52 51 51 50 48 48 46 45 45 44 44 42 40 39 38 36 35 33 32 31 30 29 28 27 25 24 22 21 19 19 19 18 18 17 16
51 52 52 52 52 51 51 50 49 48 48 46 45 44 43 42 42 41 41 39 38 36 35 33 31 30 29 29 27 26 26 25 23 22 21 20 18 17 17 17 17 15 15
50 51 50 49 48 48 47 47 46 45 44 42 41 41 41 40 40 39 38 37 35 33 31 29 29 28 27 26 25 23 23 22 21 20 19 18 16 15 15 16 15 14 14
49 48 47 46 46 45 44 44 43 42 41 40 39 39 39 38 37 36 36 35 33 31 28 26 25 25 24 23 22 22 21 19 19 19 18 18 16 16 16 15 14 13 12
47 46 45 44 44 43 42 41 40 39 39 39 38 38 37 36 35 34 33 33 31 27 25 24 23 22 21 21 20 20 19 18 17 17 17 17 16 16 15 14 13 11 10
44 44 43 42 41 40 39 38 38 38 38 37 37 36 35 34 33 32 30 29 26 24 23 21 21 20 20 20 19 18 18 17 17 16 15 15 15 14 14 13 12 10 9
43 42 40 39 38 38 37 37 36 36 36 35 35 34 33 31 30 29 28 26 24 23 22 20 19 19 18 17 17 17 16 16 15 14 13 12 13 13 12 12 11 11 10
40 39 38 38 38 37 37 36 36 35 34 34 33 31 30 28 27 26 24 23 22 20 19 18 17 17 17 16 15 14 14 14 14 13 12 12 13 12 12 11 11 11 10
38 37 38 37 37 36 35 35 34 33 31 30 29 28 27 26 25 22 21 20 19 18 17 16 16 15 14 13 13 13 13 13 14 13 12 12 13 12 11 11 10 10 10
37 37 36 36 35 35 34 33 32 30 28 28 27 26 25 23 22 20 19 18 17 16 15 14 14 13 12 12 12 13 13 13 13 13 13 12 12 11 11 10 10 9 9
36 35 34 33 33 32 31 30 30 29 27 27 26 26 23 21 19 18 17 16 15 14 14 13 13 12 11 11 11 12 13 12 12 12 13 12 12 11 10 9 9 8 9
33 32 31 30 29 29 28 28 27 27 26 25 23 22 20 19 17 16 16 15 14 13 13 12 12 12 11 11 10 11 12 12 11 12 12 12 11 10 10 9 9 9 9
30 29 28 28 26 26 26 25 24 23 22 21 19 17 16 15 15 14 13 12 12 13 12 12 12 11 11 10 10 10 11 11 11 12 11 11 10 9 9 9 9 9 8
28 27 26 25 24 23 23 22 20 18 17 16 15 14 13 12 12 11 11 11 11 12 11 11 11 11 10 10 10 10 11 11 11 12 11 11 10 9 8 8 9 8 7
25 24 23 22 20 19 18 17 16 15 14 14 13 12 11 10 10 10 10 11 12 12 12 11 11 11 10 10 10 10 11 11 11 11 11 11 10 8 8 8 8 8 7
20 19 19 18 18 17 17 16 15 14 13 12 12 11 11 10 10 10 10 11 11 11 12 11 10 10 10 10 11 11 11 12 12 11 11 10 9 8 8 8 8 8 8
18 18 17 17 17 16 15 15 14 13 13 12 11 11 11 11 10 10 10 11 12 12 11 11 11 11 11 11 12 12 12 13 12 12 11 11 9 8 8 8 8 8 9
18 18 17 17 16 15 14 13 13 13 12 12 12 11 11 11 11 11 11 12 13 12 11 11 12 12 11 12 13 13 13 13 13 12 11 11 9 9 8 9 10 10 12
17 16 16 15 14 13 13 13 12 12 12 12 12 11 11 12 12 12 13 13 13 13 13 12 12 12 12 12 13 13 13 13 13 12 11 11 11 10 11 11 12 13 14
Wind_Direction
277 279 281 282 284 285 286 287 287 288 289 289 289 289 289 289 288 288 289 288 288 288 289 289 288 287 287 287 287 287 286 285 285 284 282 280 277 273 273 273 273 271 268
278 280 282 284 285 286 287 288 288 289 289 290 290 289 290 289 290 289 289 289 289 288 288 287 287 287 287 287 287 286 285 284 284 284 282 280 276 273 272 273 273 271 268
278 281 283 285 286 287 288 289 289 289 289 289 290 290 291 291 290 290 289 289 289 288 288 286 286 287 287 286 286 285 284 283 284 284 281 279 276 272 270 271 271 271 268
279 281 283 285 286 287 288 289 290 290 290 291 290 291 291 291 290 290 289 289 289 289 288 287 286 286 286 285 285 284 283 283 283 281 278 277 274 271 270 270 270 269 268
280 282 283 285 286 287 288 290 291 291 291 291 291 291 292 291 290 290 289 289 289 289 288 286 285 284 284 283 283 283 283 282 281 277 275 275 275 271 269 268 267 266 266
281 282 283 285 286 288 289 290 290 290 291 291 291 292 292 291 290 290 290 290 290 289 288 285 284 283 282 282 282 282 281 280 277 276 276 274 273 268 263 263 263 261 261
282 283 285 286 286 288 289 289 290 290 291 291 291 291 291 291 290 290 290 291 291 289 288 285 283 282 281 281 280 279 278 277 275 275 273 270 266 261 261 260 257 255 254
283 284 285 286 287 288 289 289 289 290 290 290 290 291 291 290 289 290 291 291 291 290 287 285 282 280 280 279 278 277 275 275 273 272 269 264 258 258 257 252 250 249 251
285 286 286 287 288 288 289 289 290 290 291 290 290 290 290 290 289 289 290 290 290 289 286 284 280 277 278 278 276 274 273 272 269 266 262 256 253 253 250 245 245 245 251
286 287 287 287 287 288 288 289 290 290 290 290 290 291 290 289 288 288 289 289 289 287 284 281 278 277 277 277 274 273 271 268 263 258 255 251 250 249 245 240 241 248 253
285 286 287 286 286 287 287 288 288 289 289 289 289 290 290 288 287 288 288 288 287 285 282 279 276 274 274 271 270 270 267 262 258 253 251 250 248 244 238 238 242 246 249
284 285 285 285 285 286 286 287 287 288 289 289 289 289 289 287 287 287 286 286 285 282 281 278 274 270 267 267 268 266 259 253 250 248 248 248 244 239 234 233 235 239 241
283 283 283 284 284 284 285 286 287 288 289 289 290 289 288 287 286 285 283 282 281 278 277 274 270 264 264 266 263 257 251 249 247 247 245 242 236 230 225 226 231 237 235
283 282 281 282 283 283 285 287 287 288 289 289 289 289 288 287 285 283 280 278 277 274 273 268 264 262 263 260 254 250 250 247 243 239 235 232 223 218 218 224 231 233 231
282 281 280 281 282 282 284 286 287 288 288 288 288 287 286 285 284 282 278 276 273 271 267 262 260 261 257 252 245 244 242 236 230 230 233 227 222 219 219 223 226 227 230
282 281 281 281 280 281 282 284 285 286 286 288 289 287 285 284 282 279 275 273 270 267 263 259 255 253 247 240 235 234 234 230 229 233 231 225 220 217 221 224 224 223 229
283 282 281 280 279 280 281 281 282 282 284 287 290 289 286 283 279 275 271 268 266 262 256 250 247 240 235 232 229 227 228 227 231 231 226 221 217 216 219 223 223 224 227
283 282 281 280 279 278 280 280 280 280 282 285 287 288 284 279 275 270 265 262 260 254 247 241 235 229 226 226 225 225 226 227 225 222 220 216 212 213 217 217 219 221 223
281 280 279 279 277 277 279 280 280 281 281 283 285 283 280 276 271 266 260 255 249 241 233 227 223 221 221 220 222 222 220 220 217 214 210 208 206 205 205 206 213 219 224
280 279 278 277 276 277 279 279 280 281 280 281 281 278 275 270 265 260 251 242 233 225 220 217 216 215 216 216 215 212 209 208 206 201 199 199 193 193 198 203 211 215 219
279 278 277 276 274 275 276 277 277 277 277 277 276 273 269 266 258 249 238 229 218 210 209 211 211 208 207 203 201 199 197 198 198 194 194 190 187 192 199 203 205 206 210
277 275 275 273 272 272 272 272 272 273 272 270 268 264 261 256 245 236 225 214 207 205 205 206 205 204 203 197 194 190 190 192 190 190 189 187 187 191 195 195 197 199 198
275 274 273 271 269 270 271 269 268 269 267 264 261 254 248 240 231 220 210 206 204 201 200 199 202 201 196 193 189 188 188 188 187 187 185 184 183 186 189 188 188 190 188
273 273 271 268 268 268 268 267 265 262 259 256 251 243 235 225 215 206 201 198 194 192 192 193 191 188 186 186 184 185 185 185 184 185 182 182 182 184 184 181 177 174 170
273 272 269 266 265 263 261 261 260 255 251 245 238 230 221 212 204 196 192 190 188 186 185 183 181 180 181 180 180 181 182 181 180 182 182 180 180 178 171 165 162 161 159
272 270 266 261 260 258 255 252 250 247 242 233 223 214 208 203 197 191 187 186 185 185 184 183 181 180 177 177 179 181 180 179 178 178 177 172 168 162 154 152 152 152 151
Height
5659 5657 5655 5652 5649 5645 5641 5637 5633 5629 5624 5619 5614 5610 5605 5601 5596 5592 5588 5584 5580 5575 5570 5566 5562 5557 5553 5550 5546 5543 5539 5536 5535 5535 5531 5528 5526 5525 5524 5524 5525 5526 5527
5647 5645 5642 5639 5636 5632 5628 5623 5619 5614 5609 5604 5599 5595 5590 5586 5581 5576 5573 5568 5564 5560 5555 5551 5547 5543 5540 5536 5533 5530 5527 5524 5522 5522 5521 5518 5516 5515 5515 5515 5515 5516 5517
5634 5632 5629 5626 5622 5618 5614 5610 5605 5600 5595 5590 5585 5580 5575 5571 5566 5561 5557 5553 5549 5545 5541 5537 5534 5529 5526 5523 5520 5518 5516 5513 5511 5510 5510 5508 5507 5506 5506 5507 5508 5508 5509
5621 5618 5615 5612 5608 5604 5600 5595 5591 5586 5581 5576 5571 5566 5561 5556 5552 5547 5543 5539 5535 5531 5528 5524 5520 5517 5514 5511 5509 5507 5505 5504 5502 5500 5500 5500 5499 5499 5499 5500 5501 5502 5502
5607 5604 5601 5598 5594 5590 5585 5581 5576 5571 5567 5562 5557 5552 5547 5543 5538 5534 5530 5526 5522 5518 5515 5511 5508 5505 5503 5501 5499 5498 5496 5494 5493 5492 5492 5491 5492 5491 5492 5493 5494 5495 5496
5593 5590 5587 5584 5580 5576 5571 5567 5562 5558 5553 5548 5543 5539 5535 5530 5526 5521 5517 5513 5510 5506 5503 5500 5497 5495 5493 5491 5490 5489 5488 5487 5486 5485 5485 5485 5485 5485 5486 5487 5488 5490 5491
5579 5576 5573 5569 5566 5562 5557 5553 5548 5544 5539 5535 5530 5526 5522 5518 5514 5510 5505 5501 5498 5495 5492 5489 5487 5486 5484 5483 5482 5481 5480 5479 5479 5478 5478 5479 5479 5479 5480 5482 5483 5485 5486
5565 5562 5559 5555 5552 5548 5544 5539 5535 5531 5526 5522 5518 5514 5510 5506 5502 5498 5495 5491 5488 5485 5482 5480 5479 5478 5476 5475 5475 5474 5474 5474 5473 5472 5473 5474 5474 5475 5476 5477 5479 5481 5483
5551 5548 5544 5541 5537 5534 5530 5526 5522 5518 5514 5510 5506 5502 5498 5495 5491 5487 5484 5481 5479 5476 5474 5472 5470 5470 5470 5469 5468 5468 5468 5468 5468 5467 5468 5469 5470 5471 5472 5474 5476 5478 5480
5537 5534 5530 5527 5523 5520 5517 5513 5510 5506 5502 5499 5495 5491 5487 5484 5481 5477 5474 5472 5470 5468 5466 5464 5464 5463 5463 5462 5462 5462 5463 5463 5463 5464 5465 5466 5467 5468 5470 5471 5473 5475 5477
5523 5520 5517 5514 5511 5508 5505 5502 5498 5495 5492 5488 5485 5481 5477 5474 5471 5468 5465 5463 5461 5460 5458 5458 5457 5457 5457 5456 5457 5457 5457 5458 5458 5460 5461 5462 5464 5466 5467 5469 5471 5473 5474
5511 5508 5505 5502 5499 5496 5494 5491 5487 5484 5481 5478 5474 5471 5468 5465 5462 5459 5457 5455 5453 5452 5452 5451 5451 5451 5451 5451 5452 5452 5452 5453 5455 5456 5458 5459 5461 5463 5464 5466 5468 5470 5472
5498 5496 5493 5490 5488 5485 5483 5480 5477 5474 5471 5468 5464 5461 5458 5456 5453 5451 5449 5447 5446 5445 5445 5445 5445 5446 5446 5446 5447 5447 5448 5450 5451 5453 5454 5456 5458 5460 5462 5464 5466 5468 5470
5486 5484 5482 5480 5477 5475 5473 5470 5467 5464 5461 5458 5455 5452 5449 5447 5445 5442 5441 5440 5439 5439 5439 5439 5439 5440 5440 5441 5442 5443 5444 5446 5448 5450 5452 5453 5456 5458 5460 5462 5465 5466 5468
5474 5473 5471 5469 5467 5465 5462 5460 5457 5455 5451 5448 5446 5443 5441 5439 5437 5435 5433 5433 5433 5433 5433 5433 5434 5435 5435 5436 5438 5439 5441 5443 5445 5447 5449 5451 5454 5456 5458 5460 5462 5464 5466
5464 5462 5460 5458 5456 5454 5453 5450 5448 5445 5443 5439 5437 5434 5433 5431 5430 5428 5427 5427 5426 5427 5427 5428 5429 5430 5431 5433 5434 5436 5438 5440 5442 5445 5447 5449 5451 5454 5456 5458 5459 5461 5463
5453 5451 5449 5447 5446 5444 5443 5441 5439 5437 5434 5432 5429 5427 5425 5424 5423 5422 5421 5421 5421 5421 5422 5423 5425 5426 5428 5429 5432 5434 5436 5438 5440 5442 5445 5447 5449 5452 5454 5456 5458 5459 5461
5441 5440 5438 5437 5435 5434 5433 5431 5430 5428 5427 5424 5422 5420 5419 5417 5417 5416 5416 5416 5417 5417 5418 5419 5421 5423 5425 5427 5429 5431 5433 5436 5438 5440 5442 5445 5447 5450 5452 5454 5456 5457 5459
5431 5430 5428 5427 5426 5425 5424 5422 5421 5420 5418 5417 5415 5414 5412 5412 5411 5411 5411 5412 5412 5413 5415 5417 5419 5420 5422 5424 5426 5428 5431 5433 5435 5438 5440 5443 5445 5448 5450 5452 5454 5455 5456
5421 5420 5419 5418 5417 5416 5415 5414 5413 5412 5411 5410 5409 5408 5407 5407 5407 5407 5407 5408 5409 5410 5412 5414 5416 5418 5420 5422 5424 5426 5429 5431 5433 5436 5439 5441 5444 5446 5448 5450 5452 5453 5455
5412 5411 5410 5410 5409 5408 5408 5407 5406 5405 5405 5404 5404 5403 5402 5402 5403 5403 5404 5405 5406 5408 5410 5412 5414 5416 5419 5421 5423 5425 5428 5430 5433 5435 5438 5440 5443 5445 5447 5448 5450 5452 5453
5403 5402 5402 5402 5401 5401 5401 5400 5400 5400 5399 5399 5399 5399 5398 5399 5399 5400 5401 5403 5404 5406 5409 5411 5413 5415 5418 5420 5422 5425 5427 5430 5432 5434 5437 5440 5442 5444 5446 5447 5449 5451 5452
5395 5395 5395 5395 5395 5395 5395 5395 5395 5395 5395 5395 5395 5395 5395 5395 5396 5398 5399 5401 5402 5405 5407 5409 5412 5414 5417 5419 5421 5424 5427 5429 5432 5434 5437 5439 5441 5443 5445 5446 5448 5450 5451
5388 5388 5388 5388 5388 5389 5389 5389 5389 5390 5390 5390 5391 5391 5392 5393 5394 5395 5397 5399 5401 5404 5406 5408 5411 5414 5416 5418 5421 5423 5426 5429 5431 5434 5436 5439 5441 5442 5444 5446 5448 5449 5451
5382 5382 5382 5382 5383 5383 5384 5384 5384 5385 5385 5386 5387 5388 5389 5391 5392 5394 5396 5398 5400 5403 5405 5408 5411 5413 5416 5418 5421 5423 5426 5428 5431 5434 5436 5438 5440 5442 5444 5446 5447 5449 5452
5376 5376 5376 5376 5377 5378 5379 5379 5380 5380 5381 5382 5384 5385 5387 5389 5391 5393 5395 5397 5400 5402 5405 5408 5411 5413 5416 5418 5421 5423 5426 5429 5431 5434 5436 5439 5440 5442 5444 5446 5448 5451 5453